| time (UTC) | temp F | wind direction | speed MPH | gust MPH | rain 1hr in | rain 24hr in | rain mn in | humidity % | barometer mb |
| 20260505083005 | 73 | 46 | 1.0 | 3.0 | 0.00 | 0.00 | 0.00 | 76 | 1013.7 |
| 20260505082506 | 73 | 61 | 1.0 | 3.0 | 0.00 | 0.00 | 0.00 | 76 | 1013.7 |
| 20260505082004 | 73 | 19 | 1.0 | 3.0 | 0.00 | 0.00 | 0.00 | 76 | 1013.6 |
| 20260505081504 | 73 | 72 | 1.0 | 3.0 | 0.00 | 0.00 | 0.00 | 76 | 1013.6 |
| 20260505081004 | 73 | 61 | 1.0 | 3.0 | 0.00 | 0.00 | 0.00 | 76 | 1013.6 |
| 20260505080504 | 73 | 102 | 2.0 | 6.0 | 0.00 | 0.00 | 0.00 | 76 | 1013.6 |
| 20260505080004 | 73 | 37 | 1.0 | 2.0 | 0.00 | 0.00 | 0.00 | 75 | 1013.7 |
| 20260505075503 | 73 | 92 | 2.0 | 5.0 | 0.00 | 0.00 | 0.00 | 75 | 1013.7 |
| 20260505074504 | 73 | 110 | 2.0 | 6.0 | 0.00 | 0.00 | 0.00 | 75 | 1014.0 |
| 20260505073504 | 74 | 59 | 2.0 | 3.0 | 0.00 | 0.00 | 0.00 | 75 | 1014.0 |
| 20260505073004 | 74 | 101 | 1.0 | 2.0 | 0.00 | 0.00 | 0.00 | 74 | 1014.0 |
| 20260505072504 | 74 | 107 | 1.0 | 5.0 | 0.00 | 0.00 | 0.00 | 74 | 1014.1 |
| 20260505072004 | 74 | 139 | 1.0 | 5.0 | 0.00 | 0.00 | 0.00 | 74 | 1014.1 |
| 20260505071004 | 74 | 91 | 1.0 | 3.0 | 0.00 | 0.00 | 0.00 | 74 | 1013.8 |
| 20260505070503 | 74 | 62 | 2.0 | 3.0 | 0.00 | 0.00 | 0.00 | 74 | 1013.9 |
| 20260505070004 | 74 | 83 | 0.0 | 3.0 | 0.00 | 0.00 | 0.00 | 74 | 1013.9 |
| 20260505065504 | 74 | 73 | 2.0 | 6.0 | 0.00 | 0.00 | 0.00 | 73 | 1014.0 |
| 20260505065004 | 74 | 45 | 1.0 | 2.0 | 0.00 | 0.00 | 0.00 | 73 | 1014.1 |
| 20260505064504 | 74 | 78 | 1.0 | 5.0 | 0.00 | 0.00 | 0.00 | 73 | 1014.1 |
| 20260505064004 | 74 | 64 | 2.0 | 6.0 | 0.00 | 0.00 | 0.00 | 73 | 1014.1 |
| 20260505063504 | 74 | 59 | 2.0 | 6.0 | 0.00 | 0.00 | 0.00 | 73 | 1014.1 |
| 20260505063004 | 75 | 64 | 1.0 | 5.0 | 0.00 | 0.00 | 0.00 | 73 | 1014.4 |
| 20260505062504 | 74 | 156 | 2.0 | 3.0 | 0.00 | 0.00 | 0.00 | 73 | 1014.5 |
| 20260505061004 | 75 | 195 | 2.0 | 7.0 | 0.00 | 0.00 | 0.00 | 72 | 1014.8 |
| 20260505060504 | 75 | 60 | 2.0 | 7.0 | 0.00 | 0.00 | 0.00 | 72 | 1014.9 |
| 20260505060003 | 75 | 106 | 1.0 | 2.0 | 0.00 | 0.00 | 0.00 | 72 | 1014.9 |
| 20260505055504 | 75 | 104 | 2.0 | 6.0 | 0.00 | 0.00 | 0.00 | 72 | 1015.0 |
| 20260505055003 | 75 | 61 | 2.0 | 6.0 | 0.00 | 0.00 | 0.00 | 72 | 1014.7 |
| 20260505054003 | 75 | 62 | 2.0 | 6.0 | 0.00 | 0.00 | 0.00 | 72 | 1014.9 |
| 20260505053504 | 75 | 95 | 2.0 | 6.0 | 0.00 | 0.00 | 0.00 | 71 | 1014.9 |
| 20260505053004 | 75 | 68 | 1.0 | 3.0 | 0.00 | 0.00 | 0.00 | 71 | 1015.0 |
| 20260505052504 | 75 | 66 | 2.0 | 5.0 | 0.00 | 0.00 | 0.00 | 71 | 1015.1 |
| 20260505052004 | 75 | 56 | 1.0 | 5.0 | 0.00 | 0.00 | 0.00 | 71 | 1015.1 |
| 20260505051004 | 75 | 51 | 2.0 | 5.0 | 0.00 | 0.00 | 0.00 | 70 | 1015.1 |
| 20260505050503 | 76 | 55 | 1.0 | 5.0 | 0.00 | 0.00 | 0.00 | 70 | 1015.1 |
| 20260505041503 | 76 | 97 | 0.0 | 2.0 | 0.00 | 0.00 | 0.00 | 68 | 1015.5 |
| 20260505041004 | 76 | 121 | 1.0 | 3.0 | 0.00 | 0.00 | 0.00 | 68 | 1015.3 |
| 20260505040504 | 76 | 68 | 2.0 | 3.0 | 0.00 | 0.00 | 0.00 | 68 | 1015.5 |
| 20260505035503 | 77 | 71 | 1.0 | 3.0 | 0.00 | 0.00 | 0.00 | 68 | 1015.6 |
| 20260505035004 | 77 | 61 | 1.0 | 5.0 | 0.00 | 0.00 | 0.00 | 67 | 1015.7 |
| 20260505034504 | 77 | 85 | 2.0 | 3.0 | 0.00 | 0.00 | 0.00 | 67 | 1015.8 |
| 20260505034004 | 77 | 101 | 2.0 | 6.0 | 0.00 | 0.00 | 0.00 | 67 | 1015.8 |
| 20260505033503 | 77 | 48 | 2.0 | 5.0 | 0.00 | 0.00 | 0.00 | 67 | 1015.8 |
| 20260505033004 | 77 | 61 | 2.0 | 6.0 | 0.00 | 0.00 | 0.00 | 67 | 1015.7 |
| 20260505032504 | 77 | 136 | 2.0 | 6.0 | 0.00 | 0.00 | 0.00 | 66 | 1015.8 |
| 20260505032003 | 78 | 40 | 1.0 | 6.0 | 0.00 | 0.00 | 0.00 | 66 | 1015.7 |
| 20260505031504 | 78 | 59 | 2.0 | 5.0 | 0.00 | 0.00 | 0.00 | 66 | 1015.8 |
| 20260505031004 | 78 | 94 | 2.0 | 5.0 | 0.00 | 0.00 | 0.00 | 66 | 1016.0 |
| 20260505030004 | 78 | 53 | 1.0 | 2.0 | 0.00 | 0.00 | 0.00 | 66 | 1015.9 |
| 20260505025504 | 78 | 66 | 1.0 | 8.0 | 0.00 | 0.00 | 0.00 | 65 | 1015.9 |
| 20260505025004 | 78 | 69 | 1.0 | 3.0 | 0.00 | 0.00 | 0.00 | 65 | 1015.8 |
| 20260505024504 | 79 | 99 | 1.0 | 3.0 | 0.00 | 0.00 | 0.00 | 65 | 1015.7 |
| 20260505024004 | 79 | 85 | 2.0 | 6.0 | 0.00 | 0.00 | 0.00 | 64 | 1015.6 |
| 20260505023503 | 79 | 108 | 3.0 | 7.0 | 0.00 | 0.00 | 0.00 | 64 | 1015.5 |
| 20260505023004 | 79 | 89 | 2.0 | 7.0 | 0.00 | 0.00 | 0.00 | 64 | 1015.4 |
| 20260505022504 | 79 | 103 | 2.0 | 7.0 | 0.00 | 0.00 | 0.00 | 64 | 1015.3 |
| 20260505022004 | 79 | 55 | 3.0 | 9.0 | 0.00 | 0.00 | 0.00 | 64 | 1015.4 |
| 20260505021504 | 79 | 66 | 1.0 | 7.0 | 0.00 | 0.00 | 0.00 | 63 | 1015.4 |
| 20260505020504 | 79 | 76 | 0.0 | 5.0 | 0.00 | 0.00 | 0.00 | 63 | 1015.3 |
| 20260505020004 | 79 | 45 | 1.0 | 3.0 | 0.00 | 0.00 | 0.00 | 63 | 1015.3 |
| 20260505015504 | 79 | 71 | 3.0 | 8.0 | 0.00 | 0.00 | 0.00 | 63 | 1015.3 |
| 20260505015004 | 79 | 87 | 2.0 | 7.0 | 0.00 | 0.00 | 0.00 | 62 | 1015.1 |
| 20260505014503 | 80 | 104 | 1.0 | 8.0 | 0.00 | 0.00 | 0.00 | 62 | 1015.1 |
| 20260505014004 | 80 | 77 | 3.0 | 7.0 | 0.00 | 0.00 | 0.00 | 62 | 1015.1 |
| 20260505013504 | 80 | 56 | 3.0 | 9.0 | 0.00 | 0.00 | 0.00 | 62 | 1015.1 |
| 20260505013003 | 80 | 62 | 1.0 | 6.0 | 0.00 | 0.00 | 0.00 | 62 | 1015.0 |
| 20260505012504 | 80 | 289 | 2.0 | 10.0 | 0.00 | 0.00 | 0.00 | 61 | 1014.8 |
| 20260505010004 | 81 | 99 | 2.0 | 9.0 | 0.00 | 0.00 | 0.00 | 60 | 1014.5 |
| 20260505005504 | 81 | 108 | 2.0 | 7.0 | 0.00 | 0.00 | 0.00 | 59 | 1014.5 |
| 20260505005004 | 81 | 113 | 2.0 | 8.0 | 0.00 | 0.00 | 0.00 | 59 | 1014.4 |
| 20260505004504 | 81 | 103 | 3.0 | 7.0 | 0.00 | 0.00 | 0.00 | 58 | 1014.4 |
| 20260505004004 | 81 | 103 | 2.0 | 7.0 | 0.00 | 0.00 | 0.00 | 58 | 1014.2 |
| 20260505003503 | 81 | 69 | 3.0 | 9.0 | 0.00 | 0.00 | 0.00 | 58 | 1014.1 |
| 20260505003006 | 81 | 56 | 3.0 | 9.0 | 0.00 | 0.00 | 0.00 | 57 | 1014.0 |
| 20260505002004 | 82 | 63 | 2.0 | 7.0 | 0.00 | 0.00 | 0.00 | 56 | 1014.1 |
| 20260505001503 | 82 | 79 | 5.0 | 8.0 | 0.00 | 0.00 | 0.00 | 56 | 1013.9 |
| 20260505000504 | 82 | 147 | 1.0 | 3.0 | 0.00 | 0.00 | 0.00 | 56 | 1013.5 |
| 20260505000004 | 82 | 64 | 4.0 | 9.0 | 0.00 | 0.00 | 0.00 | 55 | 1013.4 |
| 20260504235505 | 82 | 50 | 2.0 | 6.0 | 0.00 | 0.00 | 0.00 | 55 | 1013.3 |
| 20260504234504 | 83 | 320 | 1.0 | 6.0 | 0.00 | 0.00 | 0.00 | 54 | 1013.0 |
| 20260504234003 | 83 | 49 | 3.0 | 8.0 | 0.00 | 0.00 | 0.00 | 54 | 1013.0 |
| 20260504233503 | 83 | 54 | 1.0 | 5.0 | 0.00 | 0.00 | 0.00 | 53 | 1013.0 |
| 20260504233004 | 83 | 56 | 3.0 | 8.0 | 0.00 | 0.00 | 0.00 | 53 | 1012.8 |
| 20260504232504 | 83 | 81 | 2.0 | 8.0 | 0.00 | 0.00 | 0.00 | 52 | 1012.8 |
| 20260504232003 | 83 | 69 | 2.0 | 7.0 | 0.00 | 0.00 | 0.00 | 51 | 1012.6 |
| 20260504231503 | 84 | 109 | 1.0 | 6.0 | 0.00 | 0.00 | 0.00 | 51 | 1012.6 |
| 20260504231004 | 84 | 101 | 2.0 | 9.0 | 0.00 | 0.00 | 0.00 | 50 | 1012.5 |
| 20260504230504 | 84 | 65 | 2.0 | 5.0 | 0.00 | 0.00 | 0.00 | 49 | 1012.4 |
| 20260504224503 | 85 | 107 | 2.0 | 6.0 | 0.00 | 0.00 | 0.00 | 48 | 1012.0 |
| 20260504224004 | 85 | 119 | 2.0 | 12.0 | 0.00 | 0.00 | 0.00 | 48 | 1012.0 |
| 20260504223504 | 85 | 79 | 5.0 | 9.0 | 0.00 | 0.00 | 0.00 | 48 | 1012.1 |
| 20260504222004 | 85 | 68 | 2.0 | 7.0 | 0.00 | 0.00 | 0.00 | 47 | 1012.1 |
| 20260504221504 | 85 | 40 | 3.0 | 8.0 | 0.00 | 0.00 | 0.00 | 47 | 1012.2 |
| 20260504221004 | 85 | 342 | 2.0 | 7.0 | 0.00 | 0.00 | 0.00 | 47 | 1012.2 |
| 20260504220504 | 85 | 15 | 2.0 | 8.0 | 0.00 | 0.00 | 0.00 | 46 | 1012.2 |
| 20260504220004 | 85 | 125 | 2.0 | 5.0 | 0.00 | 0.00 | 0.00 | 46 | 1012.2 |
| 20260504215503 | 85 | 75 | 3.0 | 7.0 | 0.00 | 0.00 | 0.00 | 46 | 1012.3 |
| 20260504215004 | 86 | 56 | 2.0 | 6.0 | 0.00 | 0.00 | 0.00 | 46 | 1012.1 |
| 20260504214504 | 86 | 59 | 3.0 | 8.0 | 0.00 | 0.00 | 0.00 | 45 | 1012.2 |
| 20260504214004 | 86 | 92 | 5.0 | 9.0 | 0.00 | 0.00 | 0.00 | 46 | 1012.1 |
| 20260504213504 | 86 | 105 | 4.0 | 9.0 | 0.00 | 0.00 | 0.00 | 46 | 1012.0 |
| 20260504213004 | 86 | 131 | 3.0 | 8.0 | 0.00 | 0.00 | 0.00 | 45 | 1012.0 |
| 20260504212504 | 86 | 21 | 2.0 | 7.0 | 0.00 | 0.00 | 0.00 | 45 | 1012.1 |
| 20260504212004 | 86 | 32 | 2.0 | 5.0 | 0.00 | 0.00 | 0.00 | 45 | 1012.1 |
| 20260504211003 | 86 | 228 | 1.0 | 6.0 | 0.00 | 0.00 | 0.00 | 46 | 1012.2 |
| 20260504210503 | 86 | 65 | 1.0 | 6.0 | 0.00 | 0.00 | 0.00 | 45 | 1012.1 |
| 20260504210004 | 86 | 83 | 2.0 | 8.0 | 0.00 | 0.00 | 0.00 | 44 | 1012.2 |
| 20260504205503 | 86 | 102 | 3.0 | 12.0 | 0.00 | 0.00 | 0.00 | 44 | 1012.2 |
| 20260504205004 | 86 | 113 | 2.0 | 5.0 | 0.00 | 0.00 | 0.00 | 44 | 1012.2 |
| 20260504204504 | 86 | 30 | 3.0 | 8.0 | 0.00 | 0.00 | 0.00 | 44 | 1012.3 |
| 20260504204004 | 86 | 34 | 3.0 | 8.0 | 0.00 | 0.00 | 0.00 | 44 | 1012.2 |
| 20260504203504 | 86 | 95 | 2.0 | 6.0 | 0.00 | 0.00 | 0.00 | 44 | 1012.3 |
| 20260504203004 | 86 | 47 | 3.0 | 9.0 | 0.00 | 0.00 | 0.00 | 43 | 1012.4 |
| 20260504202503 | 86 | 176 | 2.0 | 6.0 | 0.00 | 0.00 | 0.00 | 42 | 1012.4 |
| 20260504202004 | 87 | 44 | 3.0 | 7.0 | 0.00 | 0.00 | 0.00 | 42 | 1012.4 |
| 20260504201503 | 87 | 81 | 4.0 | 7.0 | 0.00 | 0.00 | 0.00 | 42 | 1012.4 |
| 20260504201004 | 86 | 117 | 3.0 | 7.0 | 0.00 | 0.00 | 0.00 | 42 | 1012.4 |
| 20260504200504 | 86 | 35 | 3.0 | 9.0 | 0.00 | 0.00 | 0.00 | 42 | 1012.5 |
| 20260504200004 | 86 | 61 | 3.0 | 8.0 | 0.00 | 0.00 | 0.00 | 43 | 1012.6 |
| 20260504195503 | 86 | 76 | 3.0 | 7.0 | 0.00 | 0.00 | 0.00 | 43 | 1012.7 |
| 20260504194504 | 86 | 36 | 2.0 | 12.0 | 0.00 | 0.00 | 0.00 | 43 | 1012.8 |
| 20260504194004 | 86 | 94 | 2.0 | 7.0 | 0.00 | 0.00 | 0.00 | 43 | 1012.8 |
| 20260504193503 | 86 | 47 | 1.0 | 6.0 | 0.00 | 0.00 | 0.00 | 42 | 1013.0 |
| 20260504193004 | 86 | 106 | 3.0 | 7.0 | 0.00 | 0.00 | 0.00 | 42 | 1013.0 |
| 20260504192504 | 86 | 43 | 5.0 | 9.0 | 0.00 | 0.00 | 0.00 | 43 | 1013.0 |
| 20260504191504 | 86 | 62 | 3.0 | 7.0 | 0.00 | 0.00 | 0.00 | 44 | 1013.0 |
| 20260504191004 | 86 | 76 | 3.0 | 9.0 | 0.00 | 0.00 | 0.00 | 44 | 1013.1 |
| 20260504190504 | 86 | 39 | 4.0 | 13.0 | 0.00 | 0.00 | 0.00 | 45 | 1013.3 |
| 20260504190004 | 86 | 48 | 2.0 | 9.0 | 0.00 | 0.00 | 0.00 | 44 | 1013.3 |
| 20260504185504 | 86 | 116 | 2.0 | 7.0 | 0.00 | 0.00 | 0.00 | 44 | 1013.4 |
| 20260504185003 | 85 | 51 | 1.0 | 7.0 | 0.00 | 0.00 | 0.00 | 43 | 1013.6 |
| 20260504184503 | 86 | 94 | 3.0 | 8.0 | 0.00 | 0.00 | 0.00 | 43 | 1013.8 |
| 20260504184004 | 85 | 63 | 2.0 | 10.0 | 0.00 | 0.00 | 0.00 | 45 | 1013.8 |
| 20260504183503 | 86 | 49 | 3.0 | 9.0 | 0.00 | 0.00 | 0.00 | 44 | 1013.9 |
| 20260504183004 | 86 | 30 | 5.0 | 10.0 | 0.00 | 0.00 | 0.00 | 44 | 1013.9 |
| 20260504182504 | 86 | 130 | 3.0 | 6.0 | 0.00 | 0.00 | 0.00 | 42 | 1013.9 |
| 20260504182004 | 86 | 128 | 3.0 | 7.0 | 0.00 | 0.00 | 0.00 | 43 | 1014.1 |
| 20260504181504 | 86 | 24 | 3.0 | 12.0 | 0.00 | 0.00 | 0.00 | 44 | 1014.1 |
| 20260504181004 | 86 | 5 | 4.0 | 7.0 | 0.00 | 0.00 | 0.00 | 43 | 1014.4 |
| 20260504180504 | 86 | 31 | 5.0 | 9.0 | 0.00 | 0.00 | 0.00 | 44 | 1014.4 |
| 20260504180004 | 85 | 102 | 1.0 | 8.0 | 0.00 | 0.00 | 0.00 | 44 | 1014.4 |
| 20260504175004 | 86 | 31 | 4.0 | 9.0 | 0.00 | 0.00 | 0.00 | 44 | 1014.4 |
| 20260504174504 | 85 | 118 | 2.0 | 7.0 | 0.00 | 0.00 | 0.00 | 45 | 1014.5 |
| 20260504174003 | 85 | 78 | 2.0 | 9.0 | 0.00 | 0.00 | 0.00 | 44 | 1014.6 |
| 20260504173503 | 85 | 85 | 3.0 | 8.0 | 0.00 | 0.00 | 0.00 | 45 | 1014.7 |
| 20260504173004 | 85 | 18 | 3.0 | 13.0 | 0.00 | 0.00 | 0.00 | 45 | 1014.8 |
| 20260504172004 | 85 | 32 | 3.0 | 9.0 | 0.00 | 0.00 | 0.00 | 44 | 1014.7 |
| 20260504171004 | 85 | 68 | 5.0 | 12.0 | 0.00 | 0.00 | 0.00 | 44 | 1014.8 |
| 20260504170504 | 85 | 65 | 4.0 | 10.0 | 0.00 | 0.00 | 0.00 | 46 | 1014.9 |
| 20260504151003 | 82 | 47 | 3.0 | 8.0 | 0.00 | 0.00 | 0.00 | 52 | 1016.0 |
| 20260504150503 | 81 | 65 | 2.0 | 9.0 | 0.00 | 0.00 | 0.00 | 53 | 1016.0 |
| 20260504140504 | 79 | 53 | 3.0 | 10.0 | 0.00 | 0.00 | 0.00 | 60 | 1015.9 |
| 20260504130504 | 76 | 52 | 3.0 | 13.0 | 0.00 | 0.00 | 0.00 | 66 | 1015.8 |
| 20260504110504 | 70 | 57 | 1.0 | 5.0 | 0.00 | 0.00 | 0.00 | 78 | 1015.7 |
| 20260504100504 | 71 | 21 | 1.0 | 3.0 | 0.00 | 0.00 | 0.00 | 78 | 1015.0 |